When you browse on this site, cookies collect data to enhance your experience and personalize the content and advertising you see.
Visit our Privacy Policy to learn more. By continuing to use the site, you agree to this use of cookies and data.
  • In Czech Republic
  • List of Countries
  • For 7 days
  • Water Temperature
  • Satellite Maps
  • Weather Map
  • Weather Widgets
  • user-avatar
    Login

    Hourly Weather Tibissa

    Today, 18 December, Tuesday

    Time Temperature Precipitation Wind Pressure Humidity
    00:00 +4°C° 0 mm 6 mps 691 mmHg 85%
    01:00 +4°C° 0 mm 4 mps 691 mmHg 85%
    02:00 +4°C° 0 mm 4 mps 691 mmHg 84%
    03:00 +4°C° 0 mm 4 mps 691 mmHg 83%
    04:00 +4°C° 0 mm 4 mps 691 mmHg 82%
    05:00 +3°C° 0 mm 3 mps 691 mmHg 80%
    06:00 +3°C° 0 mm 3 mps 691 mmHg 78%
    07:00 +3°C° 0 mm 3 mps 691 mmHg 75%
    08:00 +4°C° 0 mm 3 mps 691 mmHg 67%
    09:00 +7°C° 0 mm 2 mps 692 mmHg 59%
    10:00 +8°C° 0 mm 2 mps 692 mmHg 51%
    11:00 +9°C° 0 mm 2 mps 692 mmHg 44%
    12:00 +12°C° 0 mm 2 mps 692 mmHg 36%
    13:00 +13°C° 0 mm 2 mps 692 mmHg 29%
    14:00 +14°C° 0 mm 2 mps 692 mmHg 29%
    15:00 +14°C° 0 mm 2 mps 692 mmHg 29%
    16:00 +14°C° 0 mm 2 mps 691 mmHg 29%
    17:00 +13°C° 0 mm 2 mps 691 mmHg 35%
    18:00 +10°C° 0 mm 2 mps 691 mmHg 41%
    19:00 +8°C° 0 mm 2 mps 691 mmHg 47%
    20:00 +8°C° 0 mm 2 mps 691 mmHg 49%
    21:00 +8°C° 0 mm 2 mps 691 mmHg 51%
    22:00 +7°C° 0 mm 2 mps 690 mmHg 53%
    23:00 +7°C° 0 mm 2 mps 690 mmHg 53%

    Tomorrow, 19 December, Wednesday

    Time Temperature Precipitation Wind Pressure Humidity
    00:00 +5°C° 0 mm 3 mps 690 mmHg 53%
    01:00 +5°C° 0 mm 3 mps 690 mmHg 53%
    02:00 +5°C° 0 mm 3 mps 690 mmHg 53%
    03:00 +5°C° 0 mm 3 mps 689 mmHg 54%
    04:00 +5°C° 0 mm 3 mps 689 mmHg 54%
    05:00 +5°C° 0 mm 3 mps 689 mmHg 54%
    06:00 +4°C° 0 mm 3 mps 689 mmHg 54%
    07:00 +4°C° 0 mm 3 mps 689 mmHg 54%
    08:00 +7°C° 0 mm 2 mps 689 mmHg 50%
    09:00 +9°C° 0 mm 2 mps 690 mmHg 46%
    10:00 +12°C° 0 mm 2 mps 690 mmHg 41%
    11:00 +13°C° 0 mm 2 mps 691 mmHg 38%
    12:00 +15°C° 0 mm 2 mps 691 mmHg 35%
    13:00 +16°C° 0 mm 2 mps 691 mmHg 31%
    14:00 +16°C° 0 mm 2 mps 690 mmHg 32%
    15:00 +16°C° 0 mm 2 mps 690 mmHg 33%
    16:00 +16°C° 0 mm 2 mps 690 mmHg 33%
    17:00 +15°C° 0 mm 2 mps 690 mmHg 38%
    18:00 +13°C° 0 mm 1 mps 689 mmHg 44%
    19:00 +11°C° 0 mm 1 mps 689 mmHg 49%
    20:00 +11°C° 0 mm 1 mps 689 mmHg 50%
    21:00 +10°C° 0 mm 1 mps 689 mmHg 50%
    22:00 +9°C° 0 mm 0 mps 689 mmHg 51%
    23:00 +9°C° 0 mm 0 mps 689 mmHg 52%

    Day after tomorrow, 20 December, Thursday

    Time Temperature Precipitation Wind Pressure Humidity
    00:00 +8°C° 0 mm 0 mps 689 mmHg 53%
    01:00 +8°C° 0 mm 0 mps 689 mmHg 54%
    02:00 +7°C° 0 mm 0 mps 689 mmHg 56%
    03:00 +7°C° 0 mm 0 mps 689 mmHg 57%
    04:00 +7°C° 0 mm 0 mps 689 mmHg 59%
    05:00 +7°C° 0 mm 0 mps 689 mmHg 60%
    06:00 +6°C° 0 mm 0 mps 689 mmHg 61%
    07:00 +6°C° 0 mm 0 mps 689 mmHg 63%
    08:00 +8°C° 0 mm 0 mps 690 mmHg 56%
    09:00 +11°C° 0 mm 1 mps 691 mmHg 49%
    10:00 +13°C° 0 mm 1 mps 691 mmHg 41%
    11:00 +14°C° 0 mm 1 mps 691 mmHg 39%
    12:00 +14°C° 0 mm 1 mps 691 mmHg 37%
    13:00 +15°C° 0 mm 1 mps 691 mmHg 35%
    14:00 +15°C° 0 mm 1 mps 691 mmHg 35%
    15:00 +15°C° 0 mm 2 mps 691 mmHg 35%
    16:00 +15°C° 0 mm 2 mps 690 mmHg 35%
    17:00 +14°C° 0 mm 2 mps 691 mmHg 42%
    18:00 +12°C° 0 mm 2 mps 691 mmHg 48%
    19:00 +10°C° 0 mm 2 mps 691 mmHg 54%
    20:00 +10°C° 0 mm 2 mps 691 mmHg 57%
    21:00 +9°C° 0 mm 2 mps 691 mmHg 60%
    22:00 +9°C° 0 mm 2 mps 692 mmHg 64%
    23:00 +9°C° 0 mm 2 mps 692 mmHg 67%

    21 December, Friday

    Time Temperature Precipitation Wind Pressure Humidity
    00:00 +9°C° 0 mm 2 mps 692 mmHg 71%
    01:00 +9°C° 0 mm 2 mps 692 mmHg 75%
    02:00 +8°C° 0 mm 2 mps 692 mmHg 80%
    03:00 +8°C° 0 mm 2 mps 692 mmHg 84%
    04:00 +8°C° 0 mm 2 mps 692 mmHg 89%
    05:00 +7°C° 0 mm 2 mps 692 mmHg 90%
    06:00 +7°C° 0 mm 2 mps 692 mmHg 92%
    07:00 +7°C° 0 mm 1 mps 693 mmHg 93%
    08:00 +7°C° 0 mm 2 mps 693 mmHg 87%
    09:00 +8°C° 0 mm 2 mps 694 mmHg 80%
    10:00 +9°C° 0 mm 2 mps 694 mmHg 73%
    11:00 +10°C° 0 mm 2 mps 694 mmHg 66%
    12:00 +12°C° 0 mm 2 mps 694 mmHg 60%
    13:00 +12°C° 0 mm 2 mps 694 mmHg 54%
    14:00 +12°C° 0 mm 2 mps 694 mmHg 53%
    15:00 +13°C° 0 mm 2 mps 694 mmHg 52%
    16:00 +13°C° 0 mm 2 mps 694 mmHg 50%
    17:00 +12°C° 0 mm 2 mps 694 mmHg 56%
    18:00 +10°C° 0 mm 2 mps 694 mmHg 61%
    19:00 +10°C° 0 mm 1 mps 695 mmHg 66%
    20:00 +9°C° 0 mm 1 mps 695 mmHg 70%
    21:00 +8°C° 0 mm 1 mps 695 mmHg 73%
    22:00 +7°C° 0 mm 0 mps 695 mmHg 77%
    23:00 +6°C° 0 mm 0 mps 695 mmHg 78%

    22 December, Saturday

    Time Temperature Precipitation Wind Pressure Humidity
    00:00 +6°C° 0 mm 0 mps 694 mmHg 79%
    01:00 +7°C° 0 mm 1 mps 694 mmHg 80%
    02:00 +7°C° 0 mm 1 mps 694 mmHg 79%
    03:00 +6°C° 0 mm 1 mps 694 mmHg 79%
    04:00 +6°C° 0 mm 1 mps 694 mmHg 79%
    05:00 +6°C° 0 mm 1 mps 694 mmHg 79%
    06:00 +6°C° 0 mm 1 mps 694 mmHg 80%
    07:00 +5°C° 0 mm 1 mps 694 mmHg 80%
    08:00 +7°C° 0 mm 1 mps 694 mmHg 72%
    09:00 +9°C° 0 mm 1 mps 695 mmHg 65%
    10:00 +9°C° 0 mm 2 mps 695 mmHg 57%
    11:00 +10°C° 0 mm 2 mps 695 mmHg 51%
    12:00 +13°C° 0 mm 2 mps 695 mmHg 44%
    13:00 +14°C° 0 mm 2 mps 695 mmHg 38%
    14:00 +14°C° 0 mm 2 mps 695 mmHg 36%
    15:00 +14°C° 0 mm 2 mps 694 mmHg 35%
    16:00 +14°C° 0 mm 2 mps 694 mmHg 33%
    17:00 +13°C° 0 mm 2 mps 694 mmHg 40%
    18:00 +11°C° 0 mm 1 mps 694 mmHg 46%
    19:00 +10°C° 0 mm 1 mps 693 mmHg 52%
    20:00 +9°C° 0 mm 1 mps 693 mmHg 53%
    21:00 +8°C° 0 mm 0 mps 693 mmHg 54%
    22:00 +7°C° 0 mm 0 mps 693 mmHg 56%
    23:00 +7°C° 0 mm 0 mps 693 mmHg 55%

    23 December, Sunday

    Time Temperature Precipitation Wind Pressure Humidity
    00:00 +7°C° 0 mm 1 mps 693 mmHg 55%
    01:00 +7°C° 0 mm 1 mps 693 mmHg 55%
    02:00 +7°C° 0 mm 1 mps 692 mmHg 54%
    03:00 +7°C° 0 mm 1 mps 692 mmHg 54%
    04:00 +6°C° 0 mm 1 mps 692 mmHg 53%
    05:00 +6°C° 0 mm 1 mps 692 mmHg 53%
    06:00 +6°C° 0 mm 1 mps 692 mmHg 52%
    07:00 +6°C° 0 mm 1 mps 692 mmHg 52%
    08:00 +8°C° 0 mm 1 mps 693 mmHg 45%
    09:00 +10°C° 0 mm 1 mps 694 mmHg 39%
    10:00 +12°C° 0 mm 1 mps 694 mmHg 32%
    11:00 +14°C° 0 mm 1 mps 694 mmHg 29%
    12:00 +15°C° 0 mm 1 mps 694 mmHg 26%
    13:00 +16°C° 0 mm 1 mps 694 mmHg 22%
    14:00 +16°C° 0 mm 1 mps 694 mmHg 23%
    15:00 +16°C° 0 mm 1 mps 694 mmHg 23%
    16:00 +16°C° 0 mm 1 mps 693 mmHg 23%
    17:00 +14°C° 0 mm 1 mps 693 mmHg 29%
    18:00 +12°C° 0 mm 1 mps 693 mmHg 35%
    19:00 +9°C° 0 mm 0 mps 692 mmHg 40%
    20:00 +9°C° 0 mm 0 mps 692 mmHg 41%
    21:00 +9°C° 0 mm 0 mps 692 mmHg 41%
    22:00 +8°C° 0 mm 0 mps 692 mmHg 41%
    23:00 +8°C° 0 mm 0 mps 692 mmHg 41%
    Show more